Search for airport 
image banner adimage banner ad
image banner ad

FYKM - Katima Mulilo

Located in Katima Mulilo, Namibia

ICAO - FYKM, IATA - MPA

Data provided by Airmate  

General information

Coordinates: S17°38'3" E24°10'36"
Elevation is 3144 feet MSL.
 
View others Airports in Caprivi

Operational data

Open for public use
Current time UTC:
Current local time:
Weather
METAR: FYKM 040700Z 07005KT 9999 BKN015 25/20 Q1017
TAF: TAF AMD FYKM 040721Z 0407/0415 00000KT 9999 -RA BKN020 BECMG 0407/0409 05006KT NSW BKN015 PROB30 TEMPO 0410/0415 -TSRA FEW030CB BKN035
View NOTAMs / SUP AIP / TFR affecting this airport [VIEW]
Communications frequencies: [VIEW]

Runways:

RWY identifierQFULength (ft)Width (ft)SurfaceLDA (ft)
0980°752069ASP
27260°752069

Airport contact information

Address: Katima Mulilo Namibia

Satellite view of FYKM